[[{"header":{"parameterUnit":"m.s-1","parameterCategory":1,"la1":30.2991,"la2":30.254,"lo1":-89.0895,"lo2":-89.0444,"dy":0.0017,"dx":0.0017,"nx":28,"ny":28,"refTime":"2025-07-05T09:00:00:Z","depth":0,"parameterNumber":2,"parameterNumberName":"U-component_of_WINDS"},"data":[0,0,0,0,0,0,0,0,0,0,0,0,0,0,0,0,0,0,0,0,0,0,0,0,0,0,0,0,0,0,0,0,0,0,0,0,0,0,0,0,0,0,0,0,0,0,0,0,0,0,0,0,0,0,0,0,0,0,1.299,1.299,0,1.2974,1.2974,1.2974,1.2925,1.2924,1.2923,1.2922,1.2906,1.2907,1.2908,0,0,0,0,0,0,0,0,0,0,0,0,0,1.298,1.298,1.299,1.299,1.2989,1.2974,1.2974,1.2974,1.2925,1.2924,1.2923,1.2921,1.2906,1.2907,1.2908,0,0,0,0,0,0,0,0,0,0,0,0,0,1.2976,1.2981,1.299,1.2963,1.2961,1.2974,1.2974,1.2974,1.2925,1.2924,1.2922,1.2921,1.2906,1.2907,1.2908,1.2946,0,0,1.291,1.2911,0,0,0,0,0,0,0,0,1.2977,1.2977,1.2968,1.2965,1.2962,1.295,1.2965,1.2964,1.2926,1.2939,1.2922,1.292,1.2922,1.2922,1.2922,1.2945,1.2944,1.2911,1.2911,1.2911,1.2912,0,0,0,0,0,0,0,1.2977,1.2977,1.2984,1.2967,1.2964,1.2953,1.2951,1.2964,1.294,1.2938,1.2934,1.2933,1.2921,1.2922,1.2922,1.2944,1.2911,1.2911,1.2912,1.2912,1.2997,1.2998,0,0,0,0,0,0,1.2981,1.2978,1.2984,1.2983,1.2966,1.2954,1.2952,1.2955,1.294,1.2936,1.2934,1.2931,1.2921,1.2921,1.2921,1.2963,1.2911,1.2912,1.2913,1.2995,1.2997,1.2999,0,0,0,0,0,0,1.2981,1.2982,1.2985,1.2979,1.2979,1.2956,1.2961,1.2956,1.2957,1.2937,1.2932,1.2939,1.2919,1.292,1.294,1.2962,1.2913,1.2913,1.2993,1.2996,1.2998,1.3048,0,0,0,0,0,0,1.2981,1.2982,1.2996,1.298,1.2979,1.3003,1.2962,1.2957,1.2958,1.2954,1.2941,1.2937,1.2918,1.2939,1.2941,1.2962,1.2914,1.2991,1.2994,1.2997,1.3045,1.3052,1.3059,0,0,0,0,0,1.298,1.3011,1.2996,1.2997,1.2996,1.3005,1.3004,1.2982,1.296,1.2974,1.2961,1.2937,1.296,1.2941,1.2943,1.2965,1.2989,1.2993,1.2997,1.3041,1.3051,1.3059,0,0,0,0,0,0,1.3029,1.3008,1.2992,1.3018,1.3014,1.2996,1.3012,1.2993,1.2994,1.2989,1.2962,1.296,1.2983,1.2977,1.2956,1.3001,1.2971,1.2975,1.3004,1.3013,1.302,1.302,1.2915,0,0,0,0,0,1.3043,1.3052,1.3033,1.3058,1.3056,1.3035,1.3038,1.3022,1.3016,1.3014,1.3002,1.2998,1.3004,1.3008,1.3013,1.3045,1.3041,1.3061,1.3068,1.3074,1.3077,1.3093,1.3102,1.3012,1.3012,1.3011,0,0,1.3071,1.3061,1.3068,1.3067,1.3062,1.3071,1.3034,1.3046,1.3053,1.3015,1.3033,1.3025,1.3019,1.3045,1.3056,1.304,1.3102,1.3079,1.3084,1.3084,1.3098,1.3107,1.3114,1.3014,1.3014,1.3013,0,0,1.3127,1.3121,1.314,1.3136,1.3128,1.3114,1.3119,1.3106,1.3099,1.3116,1.3089,1.3097,1.3108,1.3105,1.3104,1.3162,1.3139,1.3164,1.3201,1.3216,1.3223,1.3229,1.3248,1.3256,1.3168,1.3168,1.3168,0,1.3163,1.3176,1.3153,1.3167,1.3167,1.3135,1.3154,1.3152,1.3146,1.3147,1.313,1.3143,1.3137,1.3161,1.3175,1.3177,1.3181,1.3164,1.3224,1.323,1.3235,1.3253,1.3261,1.3171,1.3171,1.317,1.317,0,1.322,1.323,1.3247,1.3242,1.3245,1.3262,1.3241,1.3247,1.3232,1.322,1.3238,1.323,1.3232,1.3237,1.3221,1.3259,1.3249,1.3229,1.3197,1.3247,1.3263,1.327,1.3175,1.3174,1.3173,1.3173,0,0,1.3303,1.3287,1.3293,1.3291,1.3281,1.3288,1.3304,1.3306,1.3311,1.331,1.3322,1.3333,1.3314,1.3314,1.3298,1.3312,1.3356,1.3289,1.3289,1.3301,1.3396,1.341,1.3418,1.3343,1.3344,1.3345,1.3396,0,1.3355,1.338,1.336,1.3389,1.3398,1.3368,1.3382,1.3378,1.3368,1.3375,1.3364,1.3372,1.3347,1.3347,1.336,1.3348,1.3375,1.3345,1.3353,1.3354,1.3353,1.3427,1.3441,1.349,1.3403,1.3404,1.3405,0,1.3417,1.3418,1.3447,1.3436,1.3439,1.3452,1.3452,1.3459,1.3454,1.3446,1.3447,1.3428,1.3443,1.3415,1.3435,1.3415,1.3418,1.3414,1.3415,1.3413,1.338,1.3425,1.3505,1.3511,1.3415,1.3414,1.3413,0,1.3473,1.3481,1.35,1.3499,1.3487,1.3496,1.3492,1.3486,1.3488,1.349,1.3491,1.3494,1.3496,1.3499,1.3481,1.3462,1.3504,1.3474,1.3497,1.3497,1.3504,1.3504,1.3584,1.3511,1.3511,1.3511,1.351,0,1.353,1.3549,1.3524,1.3536,1.3556,1.3535,1.3556,1.3548,1.3544,1.3553,1.3529,1.3539,1.3516,1.3524,1.3511,1.3529,1.3531,1.3524,1.352,1.3525,1.3525,1.3524,1.352,1.3513,1.3512,1.3512,1.3511,0,1.3594,1.3578,1.3596,1.3584,1.3582,1.3597,1.3587,1.3597,1.3587,1.3599,1.3601,1.3585,1.3592,1.3576,1.3582,1.3573,1.3599,1.3591,1.36,1.3596,1.3619,1.3617,1.37,1.3709,1.3632,1.3633,1.3634,0,1.363,1.3644,1.3634,1.3638,1.3635,1.3643,1.3646,1.3626,1.363,1.3627,1.3637,1.3643,1.3646,1.366,1.3649,1.3654,1.3644,1.3673,1.3644,1.3649,1.3642,1.364,1.3641,1.3678,1.3679,1.3679,1.368,0,1.3696,1.3688,1.3693,1.3695,1.3699,1.37,1.37,1.3705,1.3685,1.369,1.3698,1.3701,1.3707,1.3713,1.3715,1.3711,1.3692,1.369,1.3695,1.3698,1.3702,1.3699,1.3613,1.3687,1.3686,1.3686,1.3685,1.3685,1.3745,1.3756,1.3751,1.3757,1.3755,1.3755,1.3764,1.3755,1.3761,1.3764,1.3753,1.3763,1.3759,1.376,1.3758,1.3766,1.3753,1.3761,1.3763,1.3764,1.3767,1.3704,1.3767,1.3767,1.3766,1.3766,1.3766,0,1.3808,1.3804,1.381,1.381,1.3815,1.3798,1.3797,1.3803,1.3812,1.381,1.3814,1.3823,1.3829,1.3819,1.3824,1.3832,1.3824,1.3834,1.3832,1.3831,1.3779,1.3773,1.3841,1.3841,1.3841,1.3841,1.3841,1.384,1.3841,1.3858,1.385,1.3866,1.3862,1.3871,1.3872,1.3872,1.387,1.3882,1.3887,1.388,1.3876,1.388,1.3885,1.3882,1.3884,1.3897,1.3891,1.3842,1.3835,1.3827,1.3822,1.3898,1.3898,1.3941,1.3941,1.3942]},{"header":{"parameterUnit":"m.s-1","parameterCategory":1,"la1":30.2991,"la2":30.254,"lo1":-89.0895,"lo2":-89.0444,"dy":0.0017,"dx":0.0017,"nx":28,"ny":28,"refTime":"2025-07-05T09:00:00:Z","depth":0,"parameterNumber":3,"parameterNumberName":"V-component_of_WINDS"},"data":[0,0,0,0,0,0,0,0,0,0,0,0,0,0,0,0,0,0,0,0,0,0,0,0,0,0,0,0,0,0,0,0,0,0,0,0,0,0,0,0,0,0,0,0,0,0,0,0,0,0,0,0,0,0,0,0,0,0,-1.5418,-1.5419,0,-1.559,-1.5592,-1.5594,-1.5642,-1.5641,-1.564,-1.5639,-1.5819,-1.5824,-1.583,0,0,0,0,0,0,0,0,0,0,0,0,0,-1.5135,-1.514,-1.5417,-1.542,-1.5422,-1.5589,-1.5592,-1.5594,-1.5642,-1.5641,-1.564,-1.5638,-1.5817,-1.5824,-1.5831,0,0,0,0,0,0,0,0,0,0,0,0,0,-1.5277,-1.5141,-1.5417,-1.5466,-1.5472,-1.5589,-1.5592,-1.5595,-1.5642,-1.5641,-1.5639,-1.5638,-1.5815,-1.5823,-1.5832,-1.5914,0,0,-1.5858,-1.5861,0,0,0,0,0,0,0,0,-1.5269,-1.5288,-1.5456,-1.5463,-1.547,-1.5593,-1.5558,-1.5702,-1.5643,-1.5578,-1.5639,-1.5637,-1.5745,-1.5759,-1.5795,-1.5922,-1.593,-1.5859,-1.5864,-1.5867,-1.587,0,0,0,0,0,0,0,-1.5259,-1.5281,-1.5486,-1.5459,-1.5467,-1.5481,-1.5499,-1.5586,-1.5668,-1.5583,-1.5587,-1.5607,-1.5748,-1.5787,-1.58,-1.5933,-1.5858,-1.5866,-1.5871,-1.5875,-1.6139,-1.6141,0,0,0,0,0,0,-1.524,-1.5272,-1.548,-1.5491,-1.5364,-1.5487,-1.5508,-1.5555,-1.5667,-1.5682,-1.5608,-1.5608,-1.5773,-1.579,-1.5806,-1.5911,-1.5867,-1.5875,-1.588,-1.6137,-1.6139,-1.6141,0,0,0,0,0,0,-1.5234,-1.5259,-1.5473,-1.5383,-1.5411,-1.5493,-1.5546,-1.5559,-1.5597,-1.5685,-1.5701,-1.5631,-1.5772,-1.5794,-1.5887,-1.5918,-1.5879,-1.5887,-1.6135,-1.6138,-1.614,-1.6121,0,0,0,0,0,0,-1.5226,-1.5256,-1.5287,-1.5383,-1.5416,-1.555,-1.5548,-1.5563,-1.5611,-1.5614,-1.5711,-1.5726,-1.5773,-1.5874,-1.5896,-1.5929,-1.5894,-1.6133,-1.6136,-1.614,-1.6119,-1.6123,-1.6126,0,0,0,0,0,-1.5216,-1.5275,-1.5288,-1.5313,-1.5456,-1.5551,-1.557,-1.5621,-1.5613,-1.5646,-1.5703,-1.5723,-1.5911,-1.5883,-1.5908,-1.5944,-1.6131,-1.6135,-1.6139,-1.6118,-1.6122,-1.6126,0,0,0,0,0,0,-1.5181,-1.5288,-1.5304,-1.5396,-1.5464,-1.5559,-1.5602,-1.5624,-1.5697,-1.5696,-1.5758,-1.578,-1.5869,-1.5916,-1.5883,-1.6031,-1.6022,-1.6031,-1.5997,-1.6002,-1.6005,-1.5992,-1.5901,0,0,0,0,0,-1.5184,-1.5251,-1.5342,-1.5414,-1.5448,-1.5519,-1.5562,-1.5596,-1.567,-1.5699,-1.5763,-1.5835,-1.591,-1.5959,-1.6033,-1.6127,-1.615,-1.6164,-1.6168,-1.617,-1.6178,-1.6233,-1.6241,-1.6155,-1.6155,-1.6155,0,0,-1.5191,-1.5258,-1.5297,-1.5409,-1.5466,-1.5536,-1.5543,-1.5616,-1.567,-1.5711,-1.5802,-1.5852,-1.5936,-1.603,-1.6075,-1.6073,-1.6206,-1.6175,-1.6176,-1.6183,-1.6238,-1.6246,-1.6253,-1.6158,-1.6158,-1.6157,0,0,-1.5239,-1.5296,-1.5363,-1.542,-1.5506,-1.5553,-1.5569,-1.5662,-1.5696,-1.5789,-1.5822,-1.5887,-1.6015,-1.6075,-1.6122,-1.6195,-1.6217,-1.6217,-1.6235,-1.6288,-1.6295,-1.6301,-1.6329,-1.6338,-1.6225,-1.6224,-1.6224,0,-1.5237,-1.5343,-1.5395,-1.5468,-1.5517,-1.5557,-1.5627,-1.568,-1.5786,-1.582,-1.5815,-1.5979,-1.6038,-1.6148,-1.6166,-1.6202,-1.6224,-1.6206,-1.6289,-1.6296,-1.6303,-1.633,-1.634,-1.6224,-1.6224,-1.6224,-1.6224,0,-1.5337,-1.541,-1.5455,-1.5555,-1.561,-1.568,-1.5745,-1.5794,-1.5824,-1.5872,-1.5967,-1.6041,-1.6131,-1.616,-1.6189,-1.6274,-1.627,-1.6277,-1.6268,-1.631,-1.6336,-1.6347,-1.6223,-1.6224,-1.6224,-1.6224,0,0,-1.5368,-1.5498,-1.5513,-1.556,-1.5658,-1.5717,-1.579,-1.5878,-1.592,-1.5992,-1.6057,-1.6165,-1.6172,-1.6226,-1.6263,-1.6309,-1.6364,-1.631,-1.6313,-1.6319,-1.6465,-1.646,-1.6471,-1.6379,-1.6382,-1.6383,-1.6458,0,-1.543,-1.5561,-1.5611,-1.5719,-1.5789,-1.5828,-1.5893,-1.5961,-1.6009,-1.6076,-1.6129,-1.6205,-1.6208,-1.6241,-1.6289,-1.6347,-1.6395,-1.6343,-1.6442,-1.6445,-1.642,-1.6485,-1.6479,-1.6546,-1.6469,-1.6471,-1.6472,0,-1.5519,-1.5592,-1.5706,-1.5798,-1.5829,-1.5885,-1.5971,-1.6034,-1.6113,-1.6145,-1.6205,-1.624,-1.632,-1.6307,-1.642,-1.6383,-1.6427,-1.6463,-1.6467,-1.6478,-1.6461,-1.6499,-1.6569,-1.6579,-1.6489,-1.6487,-1.6486,0,-1.5531,-1.5658,-1.5744,-1.5782,-1.5891,-1.593,-1.5978,-1.6055,-1.6106,-1.6181,-1.6215,-1.6299,-1.6345,-1.641,-1.6467,-1.6452,-1.6576,-1.6567,-1.6606,-1.6605,-1.6631,-1.6629,-1.6709,-1.6658,-1.6657,-1.6657,-1.6657,0,-1.5596,-1.5664,-1.5751,-1.5803,-1.5883,-1.5941,-1.6018,-1.6068,-1.6137,-1.6202,-1.6242,-1.6302,-1.6373,-1.6443,-1.6489,-1.6577,-1.6597,-1.6626,-1.6638,-1.6623,-1.662,-1.6653,-1.6651,-1.666,-1.6659,-1.6659,-1.6658,0,-1.5623,-1.5683,-1.5779,-1.5874,-1.59,-1.5954,-1.6037,-1.609,-1.614,-1.6221,-1.6244,-1.6323,-1.6407,-1.647,-1.658,-1.6611,-1.6705,-1.6717,-1.6678,-1.6684,-1.6721,-1.6717,-1.6827,-1.6845,-1.6779,-1.678,-1.678,0,-1.566,-1.5714,-1.5815,-1.586,-1.5907,-1.598,-1.6032,-1.6092,-1.6144,-1.6239,-1.6282,-1.6369,-1.6442,-1.6576,-1.6644,-1.6729,-1.6744,-1.6776,-1.6757,-1.6741,-1.6746,-1.6742,-1.6749,-1.6779,-1.6779,-1.678,-1.678,0,-1.572,-1.5748,-1.5819,-1.5903,-1.5963,-1.6031,-1.6101,-1.6136,-1.6209,-1.6266,-1.6353,-1.6409,-1.6521,-1.6608,-1.67,-1.6751,-1.6779,-1.6786,-1.68,-1.6786,-1.6762,-1.6777,-1.6686,-1.6783,-1.6783,-1.6783,-1.6782,-1.6782,-1.5755,-1.5805,-1.5884,-1.5964,-1.6022,-1.6086,-1.6142,-1.6199,-1.6271,-1.6367,-1.6398,-1.6488,-1.6569,-1.6695,-1.6747,-1.682,-1.682,-1.6839,-1.6845,-1.6849,-1.6849,-1.6749,-1.6837,-1.6837,-1.6837,-1.6837,-1.6837,0,-1.5818,-1.5871,-1.5944,-1.6039,-1.6102,-1.6121,-1.62,-1.6252,-1.633,-1.6402,-1.6473,-1.6574,-1.6658,-1.6733,-1.6822,-1.6866,-1.6881,-1.6888,-1.6886,-1.6897,-1.6843,-1.6822,-1.6874,-1.6874,-1.6874,-1.6874,-1.6874,-1.6874,-1.5858,-1.5945,-1.5982,-1.61,-1.6153,-1.624,-1.6284,-1.6344,-1.6402,-1.6512,-1.6583,-1.6631,-1.6705,-1.68,-1.6879,-1.69,-1.6931,-1.6935,-1.6958,-1.6906,-1.6901,-1.6897,-1.6878,-1.6941,-1.6941,-1.7007,-1.7008,-1.7008]}]]